GW0147 Weather Reports


time (UTC)temp
C
wind
direction
speed
KPH
gust
KPH
rain 1hr
cm
rain 24hr
cm
rain mn
cm
humidity
%
barometer
mb
20260503054514 2 173 1.6 6.4 0.00 0.00 0.00 86 1016.5
20260503053012 2 173 0.0 6.4 0.00 0.00 0.00 84 1016.5
20260503051510 2 173 0.0 4.8 0.00 0.00 0.00 83 1016.6
20260503050017 3 172 0.0 4.8 0.00 0.00 0.00 82 1016.7
20260503044502 3 175 0.0 4.8 0.00 0.00 0.00 81 1016.8
20260503043105 3 223 1.6 9.7 0.00 0.00 0.00 80 1016.9
20260503041558 3 207 1.6 4.8 0.00 0.00 0.00 80 1016.9
20260503040111 4 229 1.6 6.4 0.00 0.00 0.00 79 1017.0
20260503034555 4 224 1.6 8.0 0.00 0.00 0.00 78 1016.9
20260503033054 4 248 1.6 9.7 0.00 0.00 0.00 77 1017.0
20260503031604 4 258 3.2 8.0 0.00 0.00 0.00 79 1017.0
20260503030054 4 194 1.6 8.0 0.00 0.00 0.00 79 1017.0
20260503024553 4 195 1.6 4.8 0.00 0.00 0.00 80 1017.2
20260503023052 4 180 1.6 6.4 0.00 0.00 0.00 79 1017.3
20260503021552 4 174 1.6 6.4 0.00 0.00 0.00 78 1017.4
20260503020054 4 167 0.0 6.4 0.00 0.00 0.00 76 1017.5
20260503014607 4 194 3.2 8.0 0.00 0.00 0.00 74 1017.5
20260503013050 5 215 3.2 6.4 0.00 0.00 0.00 72 1017.5
20260503011555 5 234 0.0 4.8 0.00 0.00 0.00 71 1017.4
20260503010050 5 214 0.0 6.4 0.00 0.00 0.00 73 1017.4
20260503004549 5 250 0.0 9.7 0.00 0.00 0.00 73 1017.3
20260503003049 5 271 1.6 6.4 0.00 0.00 0.00 74 1017.2
20260503001559 5 252 6.4 12.9 0.00 0.00 0.00 73 1017.2
20260503000047 5 246 3.2 9.7 0.00 0.00 0.00 74 1017.2
20260502234551 5 263 3.2 16.1 0.00 0.00 0.00 73 1017.2
20260502233049 5 273 6.4 17.7 0.00 0.00 0.00 72 1017.2
20260502231547 5 267 4.8 16.1 0.00 0.00 0.00 72 1017.1
20260502230046 5 253 8.0 17.7 0.00 0.00 0.00 73 1017.1
20260502224545 5 236 6.4 12.9 0.00 0.00 0.00 72 1017.1
20260502223045 5 248 6.4 16.1 0.00 0.00 0.00 72 1017.1
20260502221544 5 286 6.4 19.3 0.00 0.00 0.00 73 1017.0
20260502220044 5 281 8.0 19.3 0.00 0.00 0.00 72 1017.0
20260502214543 5 247 9.7 24.1 0.00 0.00 0.00 71 1017.2
20260502213044 5 259 9.7 19.3 0.00 0.00 0.00 70 1017.0
20260502211543 6 286 4.8 14.5 0.00 0.00 0.00 69 1017.0
20260502210056 5 264 6.4 17.7 0.00 0.00 0.00 67 1017.1
20260502204549 5 205 3.2 17.7 0.00 0.00 0.00 67 1017.1
20260502203042 5 307 6.4 24.1 0.00 0.00 0.00 67 1017.2
20260502201550 6 266 9.7 24.1 0.00 0.00 0.00 64 1017.3
20260502200042 6 287 8.0 27.4 0.00 0.00 0.00 64 1017.5
20260502194540 7 227 6.4 25.7 0.00 0.00 0.00 61 1017.5
20260502193039 7 268 9.7 22.5 0.00 0.00 0.00 61 1017.7
20260502191551 7 242 9.7 22.5 0.00 0.00 0.00 61 1017.7
20260502190043 7 273 9.7 20.9 0.00 0.00 0.00 59 1017.8
20260502184548 6 286 6.4 20.9 0.00 0.00 0.00 63 1017.7
20260502183059 6 262 8.0 20.9 0.00 0.00 0.00 60 1017.7
20260502181542 6 175 6.4 20.9 0.00 0.00 0.00 63 1017.7
20260502163031 7 258 9.7 19.3 0.00 0.03 0.00 58 1017.7
20260502161527 6 255 8.0 16.1 0.00 0.03 0.00 57 1017.6
20260502151521 6 290 4.8 11.3 0.00 0.05 0.00 61 1017.6
20260502123021 3 302 4.8 16.1 0.00 0.08 0.00 68 1018.1
20260502121514 3 282 4.8 11.3 0.00 0.08 0.00 70 1018.0
20260502114511 3 265 4.8 9.7 0.00 0.08 0.00 71 1017.8
20260502113011 3 251 4.8 9.7 0.00 0.08 0.00 74 1017.9
20260502111516 2 267 3.2 8.0 0.00 0.08 0.00 78 1017.8
20260502110013 1 236 0.0 8.0 0.00 0.08 0.00 85 1017.7
20260502104507 0 200 1.6 3.2 0.00 0.08 0.00 84 1017.6
20260502103006 0 200 0.0 6.4 0.00 0.08 0.00 83 1017.6
20260502101502 1 202 1.6 4.8 0.00 0.08 0.00 79 1017.4
20260502090108 2 266 3.2 17.7 0.00 0.08 0.00 79 1016.9
20260502070044 3 299 8.0 20.9 0.00 0.08 0.00 75 1016.3
20260502064542 3 296 6.4 22.5 0.00 0.08 0.00 74 1016.4